DW5679 Weather Reports


Display with metric or nautical units.
time (UTC)temp
F
wind
direction
speed
MPH
gust
MPH
rain 1hr
in
rain 24hr
in
rain mn
in
humidity
%
barometer
mb
20260509183030 81 32 0.0 2.0 0.00 0.00 0.00 55 1011.0
20260509183009 81 62 0.0 2.0 0.00 0.00 0.00 55 1010.9
20260509181527 80 32 0.0 0.0 0.00 0.00 0.00 59 1011.0
20260509181523 80 2 0.0 0.0 0.00 0.00 0.00 59 1011.2
20260509180021 78 282 0.0 1.0 0.00 0.00 0.00 59 1011.0
20260509180018 79 252 0.0 1.0 0.00 0.00 0.00 59 1011.2
20260509174537 78 65 0.0 2.0 0.00 0.00 0.00 59 1011.2
20260509174518 78 35 0.0 2.0 0.00 0.00 0.00 60 1011.4
20260509173019 78 12 0.0 1.0 0.00 0.00 0.00 59 1011.4
20260509171514 77 36 0.0 4.0 0.00 0.00 0.00 58 1011.5
20260509171512 77 66 0.0 4.0 0.00 0.00 0.00 58 1011.2
20260509170014 77 54 0.0 2.0 0.00 0.00 0.00 63 1011.6
20260509170012 77 89 0.0 2.0 0.00 0.00 0.00 63 1011.3
20260509164528 75 28 1.0 7.0 0.00 0.00 0.00 67 1011.2
20260509164508 75 358 1.0 7.0 0.00 0.00 0.00 67 1011.6
20260509163036 75 20 0.0 1.0 0.00 0.00 0.00 69 1011.1
20260509163005 75 351 0.0 1.0 0.00 0.00 0.00 70 1011.5
20260509161529 74 17 0.0 5.0 0.00 0.00 0.00 70 1011.2
20260509161503 74 347 0.0 3.0 0.00 0.00 0.00 70 1011.5
20260509160019 73 7 1.0 7.0 0.00 0.00 0.00 72 1011.2
20260509154610 72 334 0.0 6.0 0.00 0.00 0.00 74 1011.5
20260509154515 72 13 0.0 6.0 0.00 0.00 0.00 74 1011.2
20260509153102 71 32 0.0 2.0 0.00 0.00 0.00 75 1011.5
20260509153042 71 62 0.0 2.0 0.00 0.00 0.00 74 1011.2
20260509151552 70 13 0.0 1.0 0.00 0.00 0.00 79 1011.6
20260509151528 70 43 0.0 1.0 0.00 0.00 0.00 78 1011.3
20260509150048 68 13 0.0 0.0 0.00 0.00 0.00 81 1011.7
20260509150036 68 43 0.0 0.0 0.00 0.00 0.00 80 1011.3
20260509144542 67 13 0.0 0.0 0.00 0.00 0.00 82 1011.8
20260509144522 67 43 0.0 0.0 0.00 0.00 0.00 82 1011.4
20260509143039 66 13 0.0 1.0 0.00 0.00 0.00 85 1011.9
20260509143025 66 43 0.0 1.0 0.00 0.00 0.00 84 1011.5
20260509141535 65 13 0.0 0.0 0.00 0.00 0.00 87 1012.1
20260509141521 65 43 0.0 0.0 0.00 0.00 0.00 87 1011.6
20260509140039 64 13 0.0 0.0 0.00 0.00 0.00 88 1012.2
20260509140033 64 43 0.0 0.0 0.00 0.00 0.00 88 1011.7
20260509134529 63 29 0.0 0.0 0.00 0.00 0.00 90 1011.8
20260509133028 62 359 0.0 0.0 0.00 0.00 0.00 93 1012.3
20260509133025 62 29 0.0 0.0 0.00 0.00 0.00 93 1011.9
20260509131533 61 16 0.0 1.0 0.00 0.00 0.00 94 1012.1
20260509131525 61 45 0.0 1.0 0.00 0.00 0.00 94 1011.7
20260509130026 60 29 0.0 0.0 0.00 0.00 0.00 96 1012.1
20260509130024 60 60 0.0 0.0 0.00 0.00 0.00 96 1011.7
20260509124523 59 60 0.0 0.0 0.00 0.00 0.00 96 1011.5
20260509123025 58 60 0.0 0.0 0.00 0.00 0.00 96 1011.3
20260509123023 58 29 0.0 0.0 0.00 0.00 0.00 96 1011.7
20260509121527 58 59 0.0 0.0 0.00 0.00 0.00 95 1011.2
20260509121521 58 29 0.0 0.0 0.00 0.00 0.00 96 1011.4
20260509120031 57 59 0.0 0.0 0.00 0.00 0.00 95 1010.9
20260509120024 57 30 0.0 0.0 0.00 0.00 0.00 96 1011.2
20260509114528 57 60 0.0 0.0 0.00 0.00 0.00 95 1010.8
20260509114519 57 29 0.0 0.0 0.00 0.00 0.00 96 1011.3
20260509113026 57 59 0.0 0.0 0.00 0.00 0.00 94 1010.8
20260509113018 57 29 0.0 0.0 0.00 0.00 0.00 95 1011.1
20260509111522 58 59 0.0 0.0 0.00 0.00 0.00 94 1010.4
20260509111516 58 30 0.0 0.0 0.00 0.00 0.00 95 1010.7
20260509110020 58 59 0.0 0.0 0.00 0.00 0.00 95 1010.2
20260509110014 58 29 0.0 0.0 0.00 0.00 0.00 95 1010.5
20260509104518 58 59 0.0 0.0 0.00 0.00 0.00 94 1009.7
20260509104513 58 30 0.0 0.0 0.00 0.00 0.00 95 1010.0
20260509103012 58 59 0.0 0.0 0.00 0.00 0.00 95 1009.5
20260509101510 58 29 0.0 0.0 0.00 0.00 0.00 94 1009.7
20260509100029 59 59 0.0 0.0 0.00 0.00 0.00 93 1009.5
20260509100009 59 30 0.0 0.0 0.00 0.00 0.00 94 1009.8
20260509094527 59 59 0.0 0.0 0.00 0.00 0.00 93 1009.5
20260509094510 59 29 0.0 0.0 0.00 0.00 0.00 93 1009.8
20260509093020 59 60 0.0 0.0 0.00 0.00 0.00 92 1009.5
20260509093005 59 30 0.0 0.0 0.00 0.00 0.00 92 1009.8
20260509091520 60 50 0.0 0.0 0.00 0.00 0.00 90 1009.6
20260509091503 60 20 0.0 0.0 0.00 0.00 0.00 90 1009.9
20260509090016 61 45 0.0 0.0 0.00 0.00 0.00 89 1009.6
20260509090003 61 15 0.0 0.0 0.00 0.00 0.00 90 1010.0
20260509084512 61 45 0.0 2.0 0.00 0.00 0.00 89 1009.6
20260509084502 61 15 0.0 2.0 0.00 0.00 0.00 90 1010.0
20260509083031 61 40 0.0 4.0 0.00 0.00 0.00 89 1009.6
20260509083001 61 10 0.0 4.0 0.00 0.00 0.00 90 1009.9
20260509081600 60 13 0.0 2.0 0.00 0.00 0.00 91 1009.9
20260509081508 60 17 0.0 2.0 0.00 0.00 0.00 91 1009.5
20260509080107 61 16 0.0 0.0 0.00 0.00 0.00 88 1010.1
20260509080006 61 45 0.0 1.0 0.00 0.00 0.00 88 1009.8
20260509074559 62 26 0.0 1.0 0.00 0.00 0.00 87 1010.2
20260509074505 62 19 0.0 1.0 0.00 0.00 0.00 86 1010.0
20260509073134 62 349 0.0 2.0 0.00 0.00 0.00 88 1010.4
20260509073018 62 19 0.0 2.0 0.00 0.00 0.00 87 1010.1
20260509071554 62 356 0.0 2.0 0.00 0.00 0.00 87 1010.3
20260509071514 62 19 0.0 2.0 0.00 0.00 0.00 88 1010.1
20260509070058 62 6 0.0 1.0 0.00 0.00 0.00 89 1010.4
20260509070011 62 36 0.0 1.0 0.00 0.00 0.00 88 1010.1
20260509064553 61 348 0.0 2.0 0.00 0.00 0.00 88 1010.3
20260509064508 61 18 0.0 2.0 0.00 0.00 0.00 88 1010.1
20260509063052 60 40 0.0 0.0 0.00 0.00 0.00 90 1010.5
20260509063005 60 70 0.0 0.0 0.00 0.00 0.00 90 1010.2
20260509061556 61 41 0.0 0.0 0.00 0.00 0.00 89 1010.6
20260509061504 61 71 0.0 0.0 0.00 0.00 0.00 89 1010.2
20260509060058 62 8 0.0 0.0 0.00 0.00 0.00 88 1010.7
20260509060029 62 38 0.0 1.0 0.00 0.00 0.00 88 1010.4
20260509054558 62 344 0.0 1.0 0.00 0.00 0.00 88 1011.0
20260509054516 62 14 0.0 0.0 0.00 0.00 0.00 87 1010.6
20260509053043 62 344 0.0 3.0 0.00 0.00 0.00 88 1011.4
20260509053015 62 14 0.0 3.0 0.00 0.00 0.00 88 1010.9
20260509051541 62 41 0.0 0.0 0.00 0.00 0.00 88 1011.7
20260509051508 62 71 0.0 0.0 0.00 0.00 0.00 88 1011.2
20260509050039 62 41 0.0 0.0 0.00 0.00 0.00 88 1011.7
20260509050022 62 71 0.0 0.0 0.00 0.00 0.00 88 1011.2
20260509044540 62 41 0.0 0.0 0.00 0.00 0.00 86 1011.7
20260509044503 62 71 0.0 0.0 0.00 0.00 0.00 86 1011.4
20260509043043 63 22 0.0 0.0 0.00 0.00 0.00 85 1012.6
20260509043021 63 52 0.0 0.0 0.00 0.00 0.00 84 1012.1
20260509041538 63 22 0.0 0.0 0.00 0.00 0.00 84 1012.5
20260509041520 63 52 0.0 0.0 0.00 0.00 0.00 84 1012.0
20260509040053 63 347 0.0 2.0 0.00 0.00 0.00 85 1012.8
20260509040014 63 17 0.0 2.0 0.00 0.00 0.00 84 1012.4
20260509034547 64 340 0.0 1.0 0.00 0.00 0.00 83 1012.9
20260509034515 64 10 0.0 1.0 0.00 0.00 0.00 83 1012.5
20260509033037 64 346 0.0 2.0 0.00 0.00 0.00 81 1012.6
20260509033006 64 15 0.0 2.0 0.00 0.00 0.00 80 1012.2
20260509031536 63 346 0.0 1.0 0.00 0.00 0.00 83 1012.9
20260509031513 63 33 0.0 1.0 0.00 0.00 0.00 83 1012.3
20260509030036 63 11 0.0 0.0 0.00 0.00 0.00 85 1012.2
20260509030029 63 41 0.0 0.0 0.00 0.00 0.00 85 1011.7
20260509024534 63 11 0.0 1.0 0.00 0.00 0.00 86 1012.0
20260509023033 63 21 0.0 0.0 0.00 0.00 0.00 85 1011.5
20260509023020 63 52 0.0 0.0 0.00 0.00 0.00 84 1011.0
20260509021536 64 21 0.0 0.0 0.00 0.00 0.00 82 1010.7
20260509021517 64 51 0.0 0.0 0.00 0.00 0.00 81 1010.2
20260509020039 65 22 0.0 0.0 0.00 0.00 0.00 81 1010.4
20260509020013 65 51 0.0 0.0 0.00 0.00 0.00 80 1010.0
20260509014533 66 21 0.0 0.0 0.00 0.00 0.00 78 1009.9
20260509014508 66 51 0.0 0.0 0.00 0.00 0.00 77 1009.7
20260509013034 67 21 0.0 0.0 0.00 0.00 0.00 74 1010.1
20260509013030 67 51 0.0 0.0 0.00 0.00 0.00 73 1009.9
20260509011535 69 21 0.0 0.0 0.00 0.00 0.00 70 1010.0
20260509011525 69 51 0.0 0.0 0.00 0.00 0.00 70 1009.7
20260509010037 70 21 0.0 0.0 0.00 0.00 0.00 67 1009.9
20260509010024 70 52 0.0 0.0 0.00 0.00 0.00 66 1009.5
20260509004539 73 21 0.0 0.0 0.00 0.00 0.00 62 1010.0
20260509004526 73 52 0.0 0.0 0.00 0.00 0.00 61 1009.6
20260509003029 74 21 0.0 0.0 0.00 0.00 0.00 60 1009.9
20260509003016 74 51 0.0 0.0 0.00 0.00 0.00 59 1009.5
20260509001528 76 4 0.0 0.0 0.00 0.00 0.00 57 1010.0
20260509001512 76 34 0.0 0.0 0.00 0.00 0.00 56 1009.6
20260509000027 75 4 0.0 1.0 0.00 0.00 0.00 56 1010.0
20260509000025 75 34 0.0 1.0 0.00 0.00 0.00 55 1009.7
20260508234527 74 17 0.0 1.0 0.00 0.00 0.00 57 1010.2
20260508234524 74 47 0.0 1.0 0.00 0.00 0.00 58 1009.8
20260508233026 74 23 0.0 1.0 0.00 0.00 0.00 55 1010.2
20260508233024 74 53 0.0 2.0 0.00 0.00 0.00 55 1009.9
20260508231526 74 21 0.0 1.0 0.00 0.00 0.00 55 1010.2
20260508231521 74 51 0.0 1.0 0.00 0.00 0.00 54 1009.8
20260508230026 74 11 0.0 1.0 0.00 0.00 0.00 56 1010.1
20260508230002 74 41 0.0 1.0 0.00 0.00 0.00 56 1009.7
20260508224527 75 22 0.0 1.0 0.00 0.00 0.00 54 1010.1
20260508224503 75 52 0.0 1.0 0.00 0.00 0.00 53 1009.7
20260508223038 75 13 0.0 0.0 0.00 0.00 0.00 55 1010.0
20260508223009 75 43 0.0 0.0 0.00 0.00 0.00 55 1009.7
20260508221524 75 12 0.0 0.0 0.00 0.00 0.00 54 1010.0
20260508221505 75 43 0.0 0.0 0.00 0.00 0.00 56 1009.7
20260508220025 75 33 0.0 1.0 0.00 0.00 0.00 53 1009.9
20260508220013 75 62 0.0 1.0 0.00 0.00 0.00 52 1009.6
20260508214523 76 21 0.0 1.0 0.00 0.00 0.00 52 1010.0
20260508214504 76 50 0.0 1.0 0.00 0.00 0.00 53 1009.7
20260508213122 76 48 0.0 1.0 0.00 0.00 0.00 51 1010.2
20260508213010 76 78 0.0 1.0 0.00 0.00 0.00 51 1009.9
20260508211519 76 359 0.0 1.0 0.00 0.00 0.00 52 1010.6
20260508211504 76 29 0.0 1.0 0.00 0.00 0.00 51 1010.2
20260508210017 75 117 0.0 1.0 0.00 0.00 0.00 52 1011.0
20260508210006 75 148 0.0 2.0 0.00 0.00 0.00 52 1010.5
20260508204522 75 333 0.0 4.0 0.00 0.00 0.00 49 1011.2
20260508204509 75 10 1.0 4.0 0.00 0.00 0.00 48 1010.7
20260508203013 75 220 0.0 2.0 0.00 0.00 0.00 52 1011.3
20260508201513 74 349 0.0 3.0 0.00 0.00 0.00 53 1011.6
20260508201505 74 19 0.0 3.0 0.00 0.00 0.00 53 1011.2
20260508200011 75 354 0.0 4.0 0.00 0.00 0.00 50 1011.9
20260508200008 75 25 1.0 4.0 0.00 0.00 0.00 49 1011.4
20260508194508 75 25 0.0 2.0 0.00 0.00 0.00 52 1012.1
20260508194506 75 48 0.0 2.0 0.00 0.00 0.00 51 1011.6
20260508193009 75 38 0.0 1.0 0.00 0.00 0.00 54 1011.9
20260508193006 75 7 0.0 1.0 0.00 0.00 0.00 55 1012.5
20260508191514 74 203 0.0 1.0 0.00 0.00 0.00 55 1012.2
20260508191507 74 173 0.0 1.0 0.00 0.00 0.00 56 1012.6
20260508190100 74 162 0.0 2.0 0.00 0.00 0.00 61 1012.9
20260508190012 74 256 0.0 2.0 0.00 0.00 0.00 57 1012.4
20260508184609 74 65 0.0 1.0 0.00 0.00 0.00 56 1012.9
20260508184514 74 55 0.0 1.0 0.00 0.00 0.00 58 1012.5